Regional Weather Roundup
Issued by NWS

Home | Current Version | Previous Version | Graphics & Text | Print | Product List | Glossary On
Versions: 1 2 3 4 5 6 7 8 9 10 11 12 13 14 15 16 17 18 19 20 21 22 23 24 25 26 27 28 29 30 31 32 33 34 35 36 37 38 39 40 41 42 43 44 45 46 47 48 49 50
000
ASUS43 KLOT 300604
RWRIL

ILLINOIS REGIONAL WEATHER ROUNDUP
NATIONAL WEATHER SERVICE CHICAGO/ROMEOVILLE IL
100 AM CDT SAT JUL 30 2016

NOTE: "FAIR" INDICATES FEW OR NO CLOUDS BELOW 12,000 FEET WITH NO
SIGNIFICANT WEATHER AND/OR OBSTRUCTIONS TO VISIBILITY.

* THESE STATIONS ARE NOT UNDER NWS QUALITY CONTROL. THEY ALSO MAY NOT
  REPORT WEATHER SUCH AS PRECIPITATION OR FOG.

ILZ001-002-007-009-015-016-024-300700-
NORTHWEST ILLINOIS

CITY           SKY/WX    TMP DP  RH WIND       PRES   REMARKS
MOLINE         CLOUDY    71  67  87 E7        29.96R
6HR MIN TEMP:  70; 6HR MAX TEMP:  73;

STERLING*      MOCLDY    68  66  93 NE5       29.95F
SAVANNA*       CLEAR     67  65  94 NW5       29.96S
$$

ILZ003-004-008-010-011-017-018-300700-
NORTH CENTRAL ILLINOIS

CITY           SKY/WX    TMP DP  RH WIND       PRES   REMARKS
ROCKFORD       CLOUDY    69  65  86 NE9       29.97F
6HR MIN TEMP:  68; 6HR MAX TEMP:  71;

FREEPORT*      MOCLDY    64  63  96 N5        29.99F
ROCHELLE*      PTCLDY    66  65  97 NE6       29.96F
DE KALB*       CLOUDY    67  65  96 NE5       29.97F
$$

ILZ005-006-012>014-019>023-300700-
NORTHEAST ILLINOIS

CITY           SKY/WX    TMP DP  RH WIND       PRES   REMARKS
CHICAGO-OHARE  CLOUDY    71  67  87 N7        29.95S
6HR MIN TEMP:  70; 6HR MAX TEMP:  73;

CHICAGO-MIDWAY CLOUDY    75  65  70 NE10      29.93F
6HR MIN TEMP:  73; 6HR MAX TEMP:  75;

AURORA         MOCLDY    69  66  90 N6        29.95F
6HR MIN TEMP:  68; 6HR MAX TEMP:  74; 6HR PCP:  0.02;

LANSING*       PTCLDY    71  66  85 NE6       29.94S
WAUKEGAN       CLOUDY    72  67  84 NE7       29.95F
6HR MIN TEMP:  68; 6HR MAX TEMP:  72; 6HR PCP: TRACE;

DUPAGE AIRPORT PTCLDY    67  64  90 N7        29.95S
6HR MIN TEMP:  67; 6HR MAX TEMP:  73;

KANKAKEE*      CLOUDY    67  66  94 CALM      29.93S
WHEELING       PTCLDY    72  66  81 E6        29.96F
6HR MIN TEMP:  70; 6HR MAX TEMP:  73;

MORRIS*        CLOUDY    68  67  96 CALM      29.93S FOG
NORTHERLY ISL    N/A     73  65  75 NE14        N/A
$$

LMZ740>746-300700-
SOUTHERN LAKE MICHIGAN

STATION/POSITION SKY/WX   TEMP    WIND        PRES    VSBY  WAVE
                          AIR SEA DIR/SP/G                  HT/PER
                          (F)     (DEG/KT/KT) (MB)    (MI)  (FT/S)
SOUTHERN BUOY              72 74   90/ 16/ 19 1014.0          3/ 4
WILMETTE HARBOR            73 72  100/ 14/ 17   N/A           4/ 5
HARRISON CRIB              75      70/ 18/ 19   N/A
BURNHAM HARBOR             73      50/ 10/ 15   N/A
CALUMET HARBOR             73      40/  7/ 13 1013.6R
BURNS HARBOR               71      70/  7/ 11 1014.2S
MICHIGAN CITY              70      40/  8/  9   N/A
MICHIGAN CITY 6N           73 76   70/ 14/ 17   N/A           3/ 3
ST. JOSEPH                 70 74   70/ 12/ 16 1013.7S         2
$$

ILZ025>027-034>036-040-047-049-050-058-095>099-300700-
WEST-CENTRAL ILLINOIS

CITY           SKY/WX    TMP DP  RH WIND       PRES   REMARKS
QUINCY         CLEAR     67  66  97 NW6       29.96S
GALESBURG*     MOCLDY    66  65  98 CALM      29.96R
MACOMB*        PTCLDY    65  64  98 CALM      29.97R
JACKSONVILLE*  CLEAR     66  64  95 CALM      29.94S
PITTSFIELD*    CLEAR     66  65  96 CALM      29.97S
$$

ILZ028>032-037-038-041>044-048-051>054-059>061-300700-
CENTRAL ILLINOIS

CITY           SKY/WX    TMP DP  RH WIND       PRES   REMARKS
BLOOMINGTON    CLEAR     68  67  96 N7        29.94F
DECATUR        CLEAR     69  65  86 CALM      29.93S
PEORIA         PTCLDY    70  68  93 NE5       29.93S
6HR MIN TEMP:  70; 6HR MAX TEMP:  79;

LACON*         CLOUDY    69  68  96 CALM      29.93S FOG
LINCOLN*       CLEAR     70  67  89 CALM      29.93S
SPRINGFIELD    CLEAR     68  65  90 W3        29.94R
6HR MIN TEMP:  68; 6HR MAX TEMP:  81;

TAYLORVILLE    CLEAR     65  65  99 MISG      29.94R
6HR MIN TEMP:  65; 6HR MAX TEMP:  79;

$$

ILZ033-039-045-046-055>057-062-063-300700-
EAST-CENTRAL ILLINOIS

CITY           SKY/WX    TMP DP  RH WIND       PRES   REMARKS
CHAMPAIGN      CLEAR     67  65  93 W5        29.93S
MATTOON        CLEAR     71  66  84 W6        29.92S
PARIS*         CLEAR     68  67  98 CALM      29.92S
$$

ILZ079-100>102-300700-
SOUTHWEST ILLINOIS

CITY           SKY/WX    TMP DP  RH WIND       PRES   REMARKS
ALTON          PTCLDY    69  68  96 CALM      29.95F
BELLEVILLE     PTCLDY    72  72 100 CALM      29.94S
CAHOKIA*       CLEAR     73  70  90 CALM      29.95S
SPARTA*        PTCLDY    70  70  98 CALM      29.96S
$$

ILZ064>066-069>071-074>076-080>082-084>086-088>090-092>094-300700-
SOUTH-CENTRAL ILLINOIS

CITY           SKY/WX    TMP DP  RH WIND       PRES   REMARKS
CARBONDALE     CLOUDY    72  68  87 NW14G22   29.96R
6HR MIN TEMP:  72; 6HR MAX TEMP:  78;

CAIRO*         PTCLDY    71  71 100 W3        29.95S
EFFINGHAM*     CLOUDY    71  71 100 CALM      29.94S
MARION         CLOUDY    75  72  88 CALM      29.96R
MT. VERNON     CLOUDY    73  70  88 CALM      29.95S
CENTRALIA*     CLOUDY    73  73  99 CALM      29.94S
SALEM*         CLOUDY    74  72  91 CALM      29.93F
METROPOLIS*    PTCLDY    73  71  95 W3        29.95S
$$

ILZ067-068-072-073-078-083-087-091-300700-
SOUTHEAST ILLINOIS

CITY           SKY/WX    TMP DP  RH WIND       PRES   REMARKS
LAWRENCEVILLE  CLEAR     71  70  96 CALM        N/A
FLORA*         CLEAR     72  70  94 SW3       29.93S
FAIRFIELD*     CLOUDY    73  73 100 CALM      29.92S
HARRISBURG*    CLEAR     73  73 100 CALM      29.94S
ROBINSON*      CLEAR     66  66 100 CALM      29.92S
CARMI*           N/A     72  72 100 S3        29.93S FOG
$$

ABBREVIATIONS USED IN REMARKS
   TC - TEMPERATURE IN CELSIUS
  WCI - WIND CHILL INDEX
   HX - HEAT INDEX
  VSB - VISIBILITY
$$





USA.gov is the U.S. government's official web portal to all federal, state and local government web resources and services.